TimeEDT,TemperatureF,Dew PointF,Humidity,Sea Level PressureIn,VisibilityMPH,Wind Direction,Wind SpeedMPH,Gust SpeedMPH,PrecipitationIn,Events,Conditions,WindDirDegrees,DateUTC
12:56 AM,52.0,45.0,77,29.98,10.0,NE,3.5,-,N/A,,Clear,50,2013-09-26 04:56:00
1:56 AM,52.0,45.0,77,29.97,10.0,ENE,5.8,-,N/A,,Clear,60,2013-09-26 05:56:00
2:56 AM,50.0,44.1,80,29.97,10.0,East,5.8,-,N/A,,Clear,80,2013-09-26 06:56:00
3:56 AM,48.0,44.1,86,29.98,10.0,East,5.8,-,N/A,,Clear,80,2013-09-26 07:56:00
4:56 AM,48.9,44.1,83,29.98,10.0,ENE,5.8,-,N/A,,Clear,70,2013-09-26 08:56:00
5:56 AM,48.0,44.1,86,30.00,10.0,ENE,5.8,-,N/A,,Clear,70,2013-09-26 09:56:00
6:56 AM,46.9,43.0,86,30.02,10.0,East,4.6,-,N/A,,Clear,80,2013-09-26 10:56:00
7:56 AM,48.0,44.1,86,30.04,6.0,East,4.6,-,N/A,,Clear,90,2013-09-26 11:56:00
8:56 AM,53.1,46.0,77,30.05,10.0,Calm,Calm,-,N/A,,Clear,0,2013-09-26 12:56:00
9:56 AM,55.9,46.0,69,30.06,10.0,NE,4.6,-,N/A,,Clear,50,2013-09-26 13:56:00
10:56 AM,61.0,46.0,58,30.06,10.0,Variable,3.5,-,N/A,,Clear,0,2013-09-26 14:56:00
11:56 AM,64.0,37.9,38,30.06,10.0,Calm,Calm,-,N/A,,Clear,0,2013-09-26 15:56:00
12:56 PM,69.1,37.0,31,30.05,10.0,Calm,Calm,-,N/A,,Clear,0,2013-09-26 16:56:00
1:56 PM,70.0,39.0,32,30.04,10.0,NNW,3.5,-,N/A,,Clear,330,2013-09-26 17:56:00
2:56 PM,72.0,41.0,33,30.03,10.0,Variable,4.6,-,N/A,,Clear,0,2013-09-26 18:56:00
3:56 PM,73.0,42.1,33,30.03,10.0,North,8.1,-,N/A,,Clear,350,2013-09-26 19:56:00
4:56 PM,73.9,42.1,32,30.03,10.0,NNE,9.2,-,N/A,,Clear,30,2013-09-26 20:56:00
5:56 PM,71.1,42.1,35,30.05,10.0,NNE,5.8,-,N/A,,Clear,30,2013-09-26 21:56:00
6:56 PM,64.9,46.9,52,30.07,10.0,NE,5.8,-,N/A,,Clear,40,2013-09-26 22:56:00
7:56 PM,63.0,48.9,60,30.08,10.0,NE,6.9,-,N/A,,Clear,50,2013-09-26 23:56:00
8:56 PM,61.0,50.0,67,30.10,10.0,NE,6.9,-,N/A,,Clear,50,2013-09-27 00:56:00
9:56 PM,57.9,50.0,75,30.12,10.0,ENE,5.8,-,N/A,,Clear,60,2013-09-27 01:56:00
10:56 PM,57.0,50.0,77,30.12,10.0,ENE,5.8,-,N/A,,Clear,60,2013-09-27 02:56:00
11:56 PM,55.0,48.9,80,30.12,10.0,NE,4.6,-,N/A,,Clear,50,2013-09-27 03:56:00